Location: Caltech
(34.1382°N, 118.1253°W)
Time: 19:54:46
(UTC-07:00)

Oscar 10/S400 - Visible Passes

Search period start: 25 October 2014 00:00
Search period end: 03 November 2014 23:00
Orbit: 3960 x 35487 km, 26.0° (Epoch: 24 October)

Date Brightness Start Highest point End Pass type
(mag) Time Alt. Az. Time Alt. Az. Time Alt. Az.
25 Oct ? 08:57:45 10° SSW 00:00:48 46° SW 09:53:31 10° ESE visible
25 Oct ? 22:10:00 10° W 23:06:06 52° SW 09:04:56 10° SE visible
26 Oct ? 21:24:38 10° W 22:11:32 57° SSW 08:14:30 10° SE visible
27 Oct ? 20:39:45 10° W 21:18:36 62° SSW 07:21:53 10° SSE visible
28 Oct ? 19:55:10 10° W 20:27:43 66° SSW 06:27:23 10° SSE visible
29 Oct ? 19:10:46 10° W 19:38:35 69° SSW 05:31:13 10° SSE visible
30 Oct ? 18:26:30 10° W 18:50:50 71° S 04:32:26 10° SSE visible
31 Oct ? 17:42:16 10° W 18:04:05 73° S 03:28:36 10° SSE visible
01 Nov ? 16:58:02 10° W 17:18:05 73° S 01:13:39 10° SSE visible
02 Nov ? 15:13:43 10° WSW 15:32:40 72° S 17:00:46 10° ESE visible
